• In Uzbekistan
  • List of Countries
  • For 7 days
  • Water Temperature
  • Satellite Maps
  • Weather Map
  • Weather Widgets
  • user-avatar
    Login

    Hourly Weather Hyurehyur

    Today, 19 January, Saturday

    Time Temperature Precipitation Wind Pressure Humidity
    00:00 -8°C° 0 mm 1 mps 593 mmHg 51%
    01:00 -8°C° 0 mm 1 mps 593 mmHg 45%
    02:00 -9°C° 0 mm 1 mps 593 mmHg 39%
    03:00 -9°C° 0 mm 1 mps 592 mmHg 33%
    04:00 -9°C° 0 mm 1 mps 592 mmHg 27%
    05:00 -9°C° 0 mm 1 mps 592 mmHg 21%
    06:00 -9°C° 0 mm 1 mps 592 mmHg 15%
    07:00 -8°C° 0 mm 1 mps 593 mmHg 16%
    08:00 -7°C° 0 mm 1 mps 593 mmHg 16%
    09:00 -6°C° 0 mm 1 mps 594 mmHg 17%
    10:00 -4°C° 0 mm 1 mps 594 mmHg 19%
    11:00 -2°C° 0 mm 1 mps 595 mmHg 21%
    12:00 -1°C° 0 mm 1 mps 595 mmHg 24%
    13:00 -1°C° 0 mm 1 mps 595 mmHg 29%
    14:00 -1°C° 0 mm 1 mps 595 mmHg 35%
    15:00 -2°C° 0 mm 1 mps 594 mmHg 41%
    16:00 -3°C° 0 mm 1 mps 594 mmHg 40%
    17:00 -4°C° 0 mm 1 mps 594 mmHg 40%
    18:00 -6°C° 0 mm 1 mps 594 mmHg 40%
    19:00 -6°C° 0 mm 1 mps 594 mmHg 37%
    20:00 -6°C° 0 mm 1 mps 593 mmHg 34%
    21:00 -6°C° 0 mm 1 mps 593 mmHg 31%
    22:00 -7°C° 0 mm 1 mps 593 mmHg 30%
    23:00 -7°C° 0 mm 1 mps 594 mmHg 30%

    Tomorrow, 20 January, Sunday

    Time Temperature Precipitation Wind Pressure Humidity
    00:00 -7°C° 0 mm 1 mps 594 mmHg 29%
    01:00 -7°C° 0 mm 1 mps 594 mmHg 29%
    02:00 -7°C° 0 mm 1 mps 594 mmHg 30%
    03:00 -7°C° 0 mm 1 mps 594 mmHg 30%
    04:00 -7°C° 0 mm 1 mps 594 mmHg 31%
    05:00 -7°C° 0 mm 1 mps 594 mmHg 31%
    06:00 -8°C° 0 mm 1 mps 594 mmHg 32%
    07:00 -7°C° 0 mm 1 mps 594 mmHg 34%
    08:00 -6°C° 0 mm 1 mps 595 mmHg 36%
    09:00 -5°C° 0 mm 0 mps 596 mmHg 39%
    10:00 -3°C° 0 mm 1 mps 596 mmHg 38%
    11:00 -3°C° 0 mm 1 mps 597 mmHg 38%
    12:00 -2°C° 0 mm 1 mps 597 mmHg 37%
    13:00 -2°C° 0 mm 1 mps 597 mmHg 41%
    14:00 -2°C° 0 mm 1 mps 597 mmHg 45%
    15:00 -2°C° 0 mm 1 mps 596 mmHg 49%
    16:00 -3°C° 0 mm 1 mps 596 mmHg 53%
    17:00 -4°C° 0 mm 1 mps 596 mmHg 57%
    18:00 -6°C° 0 mm 1 mps 596 mmHg 61%
    19:00 -7°C° 0 mm 1 mps 596 mmHg 62%
    20:00 -7°C° 0 mm 1 mps 596 mmHg 63%
    21:00 -7°C° 0 mm 1 mps 596 mmHg 64%
    22:00 -7°C° 0 mm 1 mps 595 mmHg 64%
    23:00 -7°C° 0 mm 1 mps 595 mmHg 64%

    Day after tomorrow, 21 January, Monday

    Time Temperature Precipitation Wind Pressure Humidity
    00:00 -9°C° 0 mm 2 mps 595 mmHg 64%
    01:00 -9°C° 0 mm 2 mps 595 mmHg 63%
    02:00 -9°C° 0 mm 2 mps 595 mmHg 62%
    03:00 -9°C° 0 mm 2 mps 595 mmHg 61%
    04:00 -9°C° 0 mm 2 mps 595 mmHg 59%
    05:00 -9°C° 0 mm 2 mps 594 mmHg 57%
    06:00 -9°C° 0 mm 2 mps 594 mmHg 56%
    07:00 -8°C° 0 mm 2 mps 595 mmHg 54%
    08:00 -7°C° 0 mm 2 mps 595 mmHg 53%
    09:00 -6°C° 0 mm 2 mps 596 mmHg 52%
    10:00 -3°C° 0 mm 1 mps 596 mmHg 50%
    11:00 -2°C° 0 mm 1 mps 596 mmHg 48%
    12:00 -1°C° 0 mm 1 mps 596 mmHg 46%
    13:00 -1°C° 0 mm 1 mps 595 mmHg 49%
    14:00 -1°C° 0 mm 1 mps 595 mmHg 52%
    15:00 -1°C° 0 mm 1 mps 594 mmHg 54%
    16:00 -5°C° 0 mm 2 mps 594 mmHg 55%
    17:00 -6°C° 0 mm 2 mps 593 mmHg 55%
    18:00 -8°C° 0 mm 2 mps 592 mmHg 56%
    19:00 -9°C° 0 mm 3 mps 592 mmHg 53%
    20:00 -9°C° 0 mm 3 mps 592 mmHg 49%
    21:00 -9°C° 0 mm 3 mps 591 mmHg 46%
    22:00 -9°C° 0 mm 3 mps 591 mmHg 45%
    23:00 -10°C° 0 mm 3 mps 591 mmHg 44%

    22 January, Tuesday

    Time Temperature Precipitation Wind Pressure Humidity
    00:00 -10°C° 0 mm 3 mps 590 mmHg 43%
    01:00 -10°C° 0 mm 3 mps 590 mmHg 43%
    02:00 -10°C° 0 mm 3 mps 590 mmHg 43%
    03:00 -10°C° 0 mm 3 mps 590 mmHg 42%
    04:00 -9°C° 0 mm 3 mps 590 mmHg 41%
    05:00 -9°C° 0 mm 3 mps 589 mmHg 40%
    06:00 -9°C° 0 mm 3 mps 589 mmHg 39%
    07:00 -7°C° 0 mm 2 mps 590 mmHg 39%
    08:00 -6°C° 0 mm 2 mps 591 mmHg 40%
    09:00 -3°C° 0 mm 1 mps 591 mmHg 40%
    10:00 -2°C° 0 mm 1 mps 591 mmHg 37%
    11:00 -1°C° 0 mm 1 mps 592 mmHg 35%
    12:00 0°C° 0 mm 1 mps 592 mmHg 32%
    13:00 0°C° 0 mm 1 mps 592 mmHg 36%
    14:00 0°C° 0 mm 1 mps 592 mmHg 40%
    15:00 -1°C° 0 mm 1 mps 592 mmHg 44%
    16:00 -2°C° 0 mm 1 mps 592 mmHg 49%
    17:00 -4°C° 0 mm 1 mps 591 mmHg 54%
    18:00 -6°C° 0 mm 1 mps 591 mmHg 59%
    19:00 -6°C° 0 mm 0 mps 591 mmHg 60%
    20:00 -7°C° 0 mm 0 mps 592 mmHg 61%
    21:00 -7°C° 0 mm 0 mps 592 mmHg 62%
    22:00 -7°C° 0 mm 0 mps 592 mmHg 62%
    23:00 -8°C° 0 mm 1 mps 592 mmHg 62%

    23 January, Wednesday

    Time Temperature Precipitation Wind Pressure Humidity
    00:00 -8°C° 0 mm 1 mps 592 mmHg 62%
    01:00 -8°C° 0 mm 1 mps 592 mmHg 62%
    02:00 -8°C° 0 mm 1 mps 592 mmHg 61%
    03:00 -8°C° 0 mm 1 mps 592 mmHg 60%
    04:00 -8°C° 0 mm 1 mps 592 mmHg 62%
    05:00 -9°C° 0 mm 1 mps 592 mmHg 63%
    06:00 -9°C° 0 mm 1 mps 592 mmHg 65%
    07:00 -8°C° 0 mm 1 mps 592 mmHg 65%
    08:00 -7°C° 0 mm 1 mps 593 mmHg 65%
    09:00 -6°C° 0 mm 1 mps 594 mmHg 66%
    10:00 -6°C° 0 mm 2 mps 594 mmHg 65%
    11:00 -6°C° 0 mm 2 mps 594 mmHg 65%
    12:00 -5°C° 0 mm 2 mps 594 mmHg 65%
    13:00 -5°C° 0 mm 2 mps 594 mmHg 66%
    14:00 -5°C° 0 mm 2 mps 594 mmHg 68%
    15:00 -5°C° 0 mm 2 mps 593 mmHg 69%
    16:00 -6°C° 0 mm 2 mps 593 mmHg 70%
    17:00 -7°C° 0 mm 2 mps 593 mmHg 70%
    18:00 -8°C° 0 mm 2 mps 592 mmHg 70%
    19:00 -8°C° 0 mm 2 mps 592 mmHg 66%
    20:00 -8°C° 0 mm 2 mps 592 mmHg 62%
    21:00 -8°C° 0 mm 2 mps 592 mmHg 58%
    22:00 -9°C° 0 mm 2 mps 592 mmHg 56%
    23:00 -9°C° 0 mm 2 mps 592 mmHg 55%

    24 January, Thursday

    Time Temperature Precipitation Wind Pressure Humidity
    00:00 -9°C° 0 mm 2 mps 592 mmHg 54%
    01:00 -9°C° 0 mm 2 mps 592 mmHg 52%
    02:00 -9°C° 0 mm 2 mps 592 mmHg 51%
    03:00 -9°C° 0 mm 2 mps 592 mmHg 49%
    04:00 -9°C° 0 mm 2 mps 592 mmHg 47%
    05:00 -8°C° 0 mm 1 mps 592 mmHg 46%
    06:00 -8°C° 0 mm 1 mps 592 mmHg 45%
    07:00 -7°C° 0 mm 1 mps 593 mmHg 44%
    08:00 -6°C° 0 mm 1 mps 593 mmHg 44%
    09:00 -5°C° 0 mm 0 mps 594 mmHg 44%
    10:00 -3°C° 0 mm 1 mps 594 mmHg 45%
    11:00 -2°C° 0 mm 1 mps 595 mmHg 46%
    12:00 -1°C° 0 mm 1 mps 595 mmHg 47%
    13:00 -1°C° 0 mm 1 mps 595 mmHg 52%
    14:00 -1°C° 0 mm 1 mps 595 mmHg 57%
    15:00 -2°C° 0 mm 1 mps 595 mmHg 63%
    16:00 -3°C° 0 mm 1 mps 594 mmHg 66%
    17:00 -4°C° 0 mm 1 mps 594 mmHg 68%
    18:00 -6°C° 0 mm 1 mps 594 mmHg 71%
    19:00 -6°C° 0 mm 1 mps 594 mmHg 67%
    20:00 -6°C° 0 mm 1 mps 594 mmHg 64%
    21:00 -7°C° 0 mm 2 mps 594 mmHg 60%
    22:00 -7°C° 0 mm 2 mps 594 mmHg 58%
    23:00 -7°C° 0 mm 2 mps 594 mmHg 56%
    Show more